Regional Weather Roundup
Issued by NWS

Home | Current Version | Previous Version | Graphics & Text | Print | Product List | Glossary On
Versions: 1 2 3 4 5 6 7 8 9 10 11 12 13 14 15 16 17 18 19 20 21 22 23 24 25 26 27 28 29 30 31 32 33 34 35 36 37 38 39 40 41 42 43 44 45 46 47 48 49 50
841
ASUS43 KIND 290509
RWRIN

WEATHER ROUNDUP FOR INDIANA
NATIONAL WEATHER SERVICE INDIANAPOLIS IN
100 AM EDT THU JUN 29 2017

NOTE: "FAIR" INDICATES FEW OR NO CLOUDS BELOW 12,000 FEET WITH NO
SIGNIFICANT WEATHER AND/OR OBSTRUCTIONS TO VISIBILITY.

* - STATION DOES NOT REPORT WEATHER SUCH AS PRECIPITATION OR FOG.

+ - STATION NOT QUALITY CONTROLLED BY THE NATIONAL WEATHER SERVICE.
    USE DATA WITH CAUTION...ESPECIALLY DEWPOINT AND RELATIVE
    HUMIDITY OBSERVATIONS.

INZ001>003-010>013-019-020-290600-
NORTHWEST INDIANA

CITY           SKY/WX    TMP DP  RH WIND       PRES   REMARKS
GARY /AIRPORT/ MOCLDY    75  62  62 S13G20    29.81F
KNOX *+        CLOUDY    72  46  40 S14       29.87F
LA PORTE +     LGT RAIN  70  61  73 S12       29.86F
MICHIGAN CITY+ DRIZZLE   68  63  83 S9        29.84F
MONTICELLO +   MOCLDY    73  58  60 S12G22    29.89F
RENSSELAER +   CLOUDY    73  55  53 S13G18    29.88F
VALPARAISO     CLOUDY    73  63  70 S14       29.85F

$$

LMZ046-743>745-290600-
SOUTHERN LAKE MICHIGAN

STATION/POSITION TIME  TEMP    WIND        PRES    WAVE
                       AIR SEA DIR/SP/G            HT
                 (UTC) (F)     (DEG/KT/KT) (MB)    (FT)
BURNS HARBOR     0440   72     190/ 14/ 20 1010.2F
MICHIGAN CITY    0440   72     170/ 16/ 19   N/A
5NW MICH CITY    0450   71 65  180/ 14/ 19   N/A     2

$$

INZ004-005-014>016-021>024-290600-
NORTH CENTRAL INDIANA

CITY           SKY/WX    TMP DP  RH WIND       PRES   REMARKS
GOSHEN         CLOUDY    73  54  51 S14       29.90S
LOGANSPORT +   CLOUDY    70  57  64 S12G17    29.92F
PERU/GRISSOM   PTCLDY    72  58  61 S16       29.92F
ROCHESTER +    CLOUDY    73  55  53 S13       29.92S
SOUTH BEND     LGT RAIN  72  60  66 S10       29.88F
WARSAW +       CLOUDY    72  54  53 SW7       29.92S

$$

INZ006>009-017-018-025>027-290600-
NORTHEAST INDIANA

CITY           SKY/WX    TMP DP  RH WIND       PRES   REMARKS
ANGOLA *+      MOCLDY    73  66  78 SW12      29.93R
AUBURN +       CLOUDY    72  52  49 S10G18    29.93F
FORT WAYNE     CLOUDY    69  54  58 S10       29.95R
HUNTINGTON +   PTCLDY    70  54  57 SW9       29.95S
KENDALLVILLE + CLOUDY    71  54  53 SW15G21   29.93F

$$

INZ028-029-035-036-043>045-051>053-290600-
WEST CENTRAL INDIANA

CITY           SKY/WX    TMP DP  RH WIND       PRES   REMARKS
CRAWFORDSVL +  CLOUDY    69  59  70 S10       29.96R
GREENCASTLE +  MOCLDY    68  57  68 S7        29.98S
LAFAYETTE      MOCLDY    71  60  68 S9G17     29.91F
TERRE HAUTE    CLOUDY    73  59  61 S10       29.96R

$$

INZ030>032-037>040-046>048-054>057-064-065-290600-
CENTRAL INDIANA

CITY           SKY/WX    TMP DP  RH WIND       PRES   REMARKS
CP ATTERBURY + CLOUDY    64  55  72 S3        30.01S
FRANKFORT +    MOCLDY    72  60  65 S6        29.96S
GREENWOOD *+   CLOUDY    69  54  57 S10       30.00R
INDIANAPOLIS   CLOUDY    70  56  61 S14       29.97S
-EAGLE CREEK   PTCLDY    71  55  56 S9        29.97S
KOKOMO +       CLOUDY    72  57  59 S14G23    29.95S
MARION +       CLOUDY    70  54  56 S13       29.96S
MT COMFORT *+  CLOUDY    70  55  60 S8        29.99S
SHELBYVILLE    CLOUDY    71  54  54 S12       29.99S
ZIONSVILLE +   CLOUDY    70  56  60 S13       29.97S

$$

INZ033-034-041-042-049-050-058-059-290600-
EAST CENTRAL INDIANA

CITY           SKY/WX    TMP DP  RH WIND       PRES   REMARKS
MUNCIE         CLOUDY    72  55  55 S12G21    29.96F
RICHMOND +     CLEAR     61  55  82 S8        30.03F

$$

INZ060-061-067>069-081>083-085>088-290600-
SOUTHWEST INDIANA

CITY           SKY/WX    TMP DP  RH WIND       PRES   REMARKS
EVANSVILLE     PTCLDY    76  62  62 S8        29.99S
HUNTINGBURG *+ PTCLDY    71  60  68 S6        30.00F
WASHINGTON +   PTCLDY    68  59  73 S7        29.98S

$$

INZ062-063-066-070>080-084-089>092-290600-
SOUTH CENTRAL AND SOUTHEAST INDIANA

CITY           SKY/WX    TMP DP  RH WIND       PRES   REMARKS
BEDFORD +      PTCLDY    68  55  64 S6        30.00S
BLOOMINGTON    CLOUDY    70  56  61 S8        29.99S
MADISON *+     CLOUDY    68  54  60 S5        30.05S
NORTH VERNON + CLEAR     68  54  60 S7        30.03S
SEYMOUR +      CLOUDY    66  57  72 S5        30.01S

$$





USA.gov is the U.S. government's official web portal to all federal, state and local government web resources and services.